Location: Unspecified
(50.2830°N, 0.0000°E)
Time: 06:02:46
(UTC+00:00)

CZ-6A DEB - Visible Passes

Search period start: 04 April 2026 00:00
Search period end: 14 April 2026 00:00
Orbit: 667 x 774 km, 88.9° (Epoch: 28 March)

Date Brightness Start Highest point End Pass type
(mag) Time Alt. Az. Time Alt. Az. Time Alt. Az.
4 Apr ? 03:28:20 10° E 03:29:51 11° ENE 03:31:20 10° NE visible
5 Apr ? 04:13:43 10° SE 04:18:04 30° ENE 04:22:19 10° NNE visible
6 Apr ? 03:26:01 10° E 03:28:13 13° ENE 03:30:23 10° NE visible
7 Apr ? 04:11:59 10° SE 04:16:28 34° E 04:20:51 10° NNE visible
8 Apr ? 03:23:52 10° ESE 03:26:33 15° ENE 03:29:13 10° NE visible
9 Apr ? 04:10:16 10° SSE 04:14:52 39° E 04:19:21 10° NNE visible
10 Apr ? 03:21:49 10° ESE 03:24:53 17° ENE 03:27:55 10° NNE visible
11 Apr ? 04:08:33 10° SSE 04:13:14 45° E 04:17:48 10° NNE visible
12 Apr ? 03:19:49 10° ESE 03:23:12 19° ENE 03:26:32 10° NNE visible
13 Apr ? 04:06:51 10° SSE 04:11:35 52° E 04:16:13 10° N visible
